Weather History for Ortonville, MN

Change the Weather History Date:

Friday, January 25, 2013

  Actual Average (KAQP) Record (KAQP)
Temperature  
Mean Temperature 10 °F -  
Max Temperature 21 °F 18 °F 39 °F (2002)
Min Temperature -2 °F 2 °F -18 °F (1997)
Degree Days  
Heating Degree Days 56    
Moisture  
Dew Point -2 °F    
Average Humidity 66    
Maximum Humidity 79    
Minimum Humidity 56    
Precipitation  
Precipitation 0.00 in - - ()
Sea Level Pressure  
Sea Level Pressure 30.13 in    
Wind  
Wind Speed 11 mph (NW)    
Max Wind Speed 26 mph    
Max Gust Speed 34 mph    
Visibility 10 miles    
Events Snow    
Averages and records for this station are not official NWS values.
T = Trace of Precipitation, MM = Missing Value Source: NWS Daily Summary

Daily Weather History Graph

Daily Weather History Graph

Search for Another Location

Airport:

Trip Planner

Search our weather history database for the weather conditions in past years. The results will help you decide how hot, cold, wet, or windy it might be!

Date:

Astronomy

Jan. 25, 2013 Rise Set
Actual Time 7:53 AM CST 5:23 PM CST
Civil Twilight 7:21 AM CST 5:55 PM CST
Nautical Twilight 6:45 AM CST 6:31 PM CST
Astronomical Twilight 6:10 AM CST 7:06 PM CST
Moon 4:21 PM CST (1/25) 6:34 AM CST (1/25)
Length of Visible Light 10h 34m
Length of Day
9h 29m
Waxing Gibbous, 98% of the Moon is Illuminated
Jan 25
Waxing Gibbous
Jan 26
Full
Feb 3
Last Quarter
Feb 10
New
Feb 17
First Quarter

Hourly Weather History & Observations

Time (CST) Temp. Windchill Dew Point Humidity Pressure Visibility Wind Dir Wind Speed Gust Speed Precip Events Conditions
12:12 AM 10.4 °F -1.5 °F 3.2 °F 73% 30.03 in 10.0 mi South 8.1 mph - N/A   Clear
12:34 AM 10.4 °F -1.5 °F 3.2 °F 73% 30.02 in 10.0 mi South 8.1 mph - N/A   Scattered Clouds
12:53 AM 10.4 °F -0.4 °F 1.4 °F 67% 30.02 in 10.0 mi SSW 6.9 mph - N/A   Scattered Clouds
1:14 AM 10.4 °F 4.0 °F 1.4 °F 67% 30.01 in 10.0 mi South 3.5 mph - N/A   Scattered Clouds
1:34 AM 10.4 °F 2.2 °F 3.2 °F 73% 30.00 in 10.0 mi South 4.6 mph - N/A   Mostly Cloudy
1:53 AM 10.4 °F 0.8 °F 3.2 °F 73% 30.00 in 10.0 mi South 5.8 mph - N/A   Overcast
2:14 AM 12.2 °F 4.3 °F 3.2 °F 67% 29.99 in 10.0 mi South 4.6 mph - N/A   Overcast
2:34 AM 12.2 °F 4.3 °F 3.2 °F 67% 29.98 in 10.0 mi South 4.6 mph - N/A   Overcast
2:53 AM 12.2 °F 6.1 °F 5.0 °F 73% 29.98 in 10.0 mi South 3.5 mph - N/A   Overcast
3:14 AM 12.2 °F 4.3 °F 6.8 °F 79% 29.98 in 10.0 mi West 4.6 mph - N/A   Overcast
3:34 AM 15.8 °F 4.2 °F 8.6 °F 73% 29.98 in 10.0 mi West 9.2 mph - N/A   Overcast
3:53 AM 17.6 °F 6.4 °F 8.6 °F 68% 29.97 in 10.0 mi West 9.2 mph - N/A   Overcast
4:14 AM 17.6 °F 5.0 °F 8.6 °F 68% 29.97 in 10.0 mi West 11.5 mph 20.7 mph N/A   Overcast
4:34 AM 17.6 °F 5.0 °F 10.4 °F 73% 29.96 in 10.0 mi West 11.5 mph - N/A   Overcast
4:53 AM 19.4 °F 6.6 °F 12.2 °F 74% 29.95 in 10.0 mi West 12.7 mph 19.6 mph N/A   Overcast
5:14 AM 19.4 °F 7.2 °F 12.2 °F 74% 29.95 in 10.0 mi West 11.5 mph 17.3 mph N/A   Overcast
5:34 AM 19.4 °F 1.4 °F 12.2 °F 74% 29.95 in 10.0 mi NW 26.5 mph 32.2 mph N/A   Overcast
5:54 AM 21.2 °F 7.3 °F 14.0 °F 74% 29.96 in 10.0 mi WNW 16.1 mph 24.2 mph N/A   Overcast
6:14 AM 19.4 °F 3.2 °F 12.2 °F 74% 29.96 in 10.0 mi NW 20.7 mph 25.3 mph N/A   Overcast
6:34 AM 19.4 °F 4.1 °F 12.2 °F 74% 29.97 in 10.0 mi NW 18.4 mph 25.3 mph N/A   Overcast
6:54 AM 19.4 °F 2.1 °F 10.4 °F 68% 29.98 in 10.0 mi NW 24.2 mph 31.1 mph N/A Snow Light Snow
7:34 AM 14.0 °F -4.7 °F 5.0 °F 67% 30.01 in 10.0 mi NW 23.0 mph 32.2 mph N/A   Clear
7:54 AM 12.2 °F -5.8 °F 1.4 °F 62% 30.03 in 10.0 mi NW 19.6 mph 32.2 mph N/A   Clear
8:14 AM 10.4 °F -8.2 °F -0.4 °F 62% 30.04 in 10.0 mi NW 19.6 mph 29.9 mph N/A   Clear
8:34 AM 10.4 °F -10.3 °F -2.2 °F 57% 30.05 in 10.0 mi NW 25.3 mph 33.4 mph N/A   Clear
8:54 AM 8.6 °F -10.5 °F -2.2 °F 62% 30.07 in 10.0 mi NW 19.6 mph 27.6 mph N/A   Clear
9:13 AM 8.6 °F -12.7 °F -4.0 °F 57% 30.07 in 10.0 mi NW 25.3 mph 28.8 mph N/A   Clear
9:34 AM 8.6 °F -10.0 °F -4.0 °F 57% 30.09 in 10.0 mi NW 18.4 mph 32.2 mph N/A   Clear
9:54 AM 8.6 °F -11.0 °F -4.0 °F 57% 30.09 in 10.0 mi NNW 20.7 mph 28.8 mph N/A   Clear
10:14 AM 6.8 °F -15.5 °F -5.8 °F 56% 30.10 in 10.0 mi NNW 26.5 mph 33.4 mph N/A   Clear
10:34 AM 6.8 °F -14.3 °F -5.8 °F 56% 30.12 in 10.0 mi NNW 23.0 mph 31.1 mph N/A   Clear
10:53 AM 6.8 °F -13.4 °F -5.8 °F 56% 30.14 in 10.0 mi NW 20.7 mph 31.1 mph N/A   Clear
11:14 AM 6.8 °F -12.9 °F -5.8 °F 56% 30.15 in 10.0 mi NNW 19.6 mph 34.5 mph N/A   Clear
11:33 AM 6.8 °F -13.4 °F -4.0 °F 61% 30.15 in 10.0 mi NNW 20.7 mph 31.1 mph N/A   Clear
11:54 AM 6.8 °F -14.3 °F -5.8 °F 56% 30.16 in 10.0 mi NW 23.0 mph 28.8 mph N/A   Clear
12:14 PM 6.8 °F -12.9 °F -4.0 °F 61% 30.15 in 10.0 mi NW 19.6 mph 26.5 mph N/A   Clear
12:34 PM 6.8 °F -10.7 °F -4.0 °F 61% 30.17 in 10.0 mi NNW 15.0 mph 24.2 mph N/A   Clear
12:54 PM 6.8 °F -11.8 °F -4.0 °F 61% 30.17 in 10.0 mi NNW 17.3 mph 25.3 mph N/A   Clear
1:13 PM 6.8 °F -11.8 °F -5.8 °F 56% 30.18 in 10.0 mi NNW 17.3 mph 25.3 mph N/A   Clear
1:34 PM 6.8 °F -12.4 °F -5.8 °F 56% 30.18 in 10.0 mi NW 18.4 mph 25.3 mph N/A   Clear
1:53 PM 6.8 °F -12.9 °F -5.8 °F 56% 30.19 in 10.0 mi NNW 19.6 mph 26.5 mph N/A   Clear
2:14 PM 6.8 °F -12.4 °F -5.8 °F 56% 30.19 in 10.0 mi NNW 18.4 mph 24.2 mph N/A   Clear
2:34 PM 6.8 °F -11.8 °F -5.8 °F 56% 30.19 in 10.0 mi NW 17.3 mph 23.0 mph N/A   Clear
2:54 PM 6.8 °F -11.3 °F -5.8 °F 56% 30.19 in 10.0 mi NNW 16.1 mph - N/A   Clear
3:14 PM 6.8 °F -10.7 °F -5.8 °F 56% 30.20 in 10.0 mi NNW 15.0 mph - N/A   Clear
3:34 PM 6.8 °F -11.3 °F -5.8 °F 56% 30.20 in 10.0 mi NNW 16.1 mph - N/A   Clear
3:54 PM 6.8 °F -8.6 °F -5.8 °F 56% 30.21 in 10.0 mi NNW 11.5 mph - N/A   Clear
4:14 PM 6.8 °F -10.0 °F -5.8 °F 56% 30.22 in 10.0 mi NNW 13.8 mph - N/A   Clear
4:33 PM 6.8 °F -8.6 °F -5.8 °F 56% 30.22 in 10.0 mi NNW 11.5 mph - N/A   Clear
4:54 PM 5.0 °F -10.0 °F -5.8 °F 61% 30.23 in 10.0 mi NNW 10.4 mph - N/A   Clear
5:14 PM 5.0 °F -6.9 °F -5.8 °F 61% 30.23 in 10.0 mi North 6.9 mph - N/A   Clear
5:34 PM 3.2 °F -7.8 °F -5.8 °F 66% 30.24 in 10.0 mi NNW 5.8 mph - N/A   Clear
5:54 PM 3.2 °F -9.1 °F -5.8 °F 66% 30.24 in 10.0 mi NNW 6.9 mph - N/A   Clear
6:14 PM 3.2 °F -11.3 °F -5.8 °F 66% 30.25 in 10.0 mi North 9.2 mph - N/A   Clear
6:34 PM 1.4 °F -11.3 °F -5.8 °F 72% 30.27 in 10.0 mi North 6.9 mph - N/A   Clear
6:53 PM 1.4 °F -11.3 °F -5.8 °F 72% 30.28 in 10.0 mi NNW 6.9 mph - N/A   Clear
7:14 PM 1.4 °F -8.3 °F -5.8 °F 72% 30.28 in 10.0 mi NNW 4.6 mph - N/A   Clear
7:34 PM 1.4 °F -11.3 °F -5.8 °F 72% 30.29 in 10.0 mi NNW 6.9 mph - N/A   Clear
7:54 PM 1.4 °F -11.3 °F -5.8 °F 72% 30.29 in 10.0 mi North 6.9 mph - N/A   Clear
8:14 PM 1.4 °F -12.5 °F -5.8 °F 72% 30.27 in 10.0 mi North 8.1 mph - N/A   Clear
8:34 PM -0.4 °F -13.4 °F -5.8 °F 78% 30.28 in 10.0 mi North 6.9 mph - N/A   Clear
8:54 PM -0.4 °F -12.0 °F -5.8 °F 78% 30.28 in 10.0 mi North 5.8 mph - N/A   Clear
9:13 PM -0.4 °F -10.4 °F -7.6 °F 72% 30.27 in 10.0 mi North 4.6 mph - N/A   Clear
9:34 PM -0.4 °F -10.4 °F -7.6 °F 72% 30.29 in 10.0 mi North 4.6 mph - N/A   Clear
9:54 PM -0.4 °F -8.3 °F -7.6 °F 72% 30.27 in 10.0 mi North 3.5 mph - N/A   Clear
10:14 PM -0.4 °F - -7.6 °F 72% 30.27 in 10.0 mi Calm Calm - N/A   Clear
10:34 PM -0.4 °F -10.4 °F -7.6 °F 72% 30.27 in 10.0 mi North 4.6 mph - N/A   Clear
10:53 PM -2.2 °F -14.2 °F -7.6 °F 78% 30.27 in 10.0 mi North 5.8 mph - N/A   Clear
11:14 PM -2.2 °F -10.4 °F -7.6 °F 78% 30.29 in 10.0 mi North 3.5 mph - N/A   Clear
11:34 PM -2.2 °F - -7.6 °F 78% 30.29 in 10.0 mi Calm Calm - N/A   Clear
11:54 PM -2.2 °F - -7.6 °F 78% 30.30 in 10.0 mi Calm Calm - N/A   Clear